Regional Weather Roundup
Issued by NWS State College, PA

Home | Current Version | Previous Version | Graphics & Text | Print | Product List | Glossary On
Versions: 1 2 3 4 5 6 7 8 9 10 11 12 13 14 15 16 17 18 19 20 21 22 23 24 25 26 27 28 29 30 31 32 33 34 35 36 37 38 39 40 41 42 43 44 45 46 47 48 49 50
000
ASUS41 KCTP 040110
RWRCTP

REGIONAL WEATHER ROUNDUP
NATIONAL WEATHER SERVICE STATE COLLEGE PA
900 PM EDT THU SEP 03 2015

Note: "fair" indicates few or no clouds below 12,000 feet with no
significant weather and/or obstructions to visibility.

* = STATION THAT DOES NOT REPORT PRECIPITATION /E.G. RAIN...SNOW...ETC/
    THUNDER OR FOG.

PAZ002>004-007>009-013>016-020>023-029>032-040200-
WESTERN PENNSYLVANIA

CITY           SKY/WX    TMP DP  RH WIND       PRES   REMARKS
ERIE           MOCLDY    74  68  81 SW3       29.95F
MEADVILLE      PTCLDY    70  67  90 CALM      29.98F FOG
FRANKLIN*      PTCLDY    70  63  78 CALM      30.02S
NEW CASTLE     FAIR      74  69  84 CALM      29.98S
BEAVER COUNTY  DRIZZLE   75  64  69 N7        29.98S
BUTLER*        CLOUDY    72  68  88 NE8       29.99S
PITTSBURGH INT CLOUDY    75  65  70 CALM      29.97S
PITTSBURGH     CLOUDY    76  61  59 W6        29.97S
INDIANA*       PTCLDY    77  70  78 CALM      30.01S
LATROBE        CLEAR     75  68  78 SW6       29.99R
WASHINGTON CO* CLOUDY    68  64  88 S3        29.99R
$$

PAZ004>006-010>012-017>019-024>028-033>037-041-042-045-046-049>053-040200-
CENTRAL PENNSYLVANIA

CITY           SKY/WX    TMP DP  RH WIND       PRES   REMARKS
BRADFORD       MOCLDY    70  63  78 CALM      30.02S
DUBOIS         MOCLDY    69  61  75 VRB3      29.99R
CLEARFIELD     MOCLDY    73  64  73 N6        29.99R
JOHNSTOWN      MOCLDY    75  65  70 NW7       30.03R
ALTOONA        PTCLDY    73  65  75 CALM      29.99R
STATE COLLEGE  CLEAR     73  64  73 CALM      29.97R
WILLIAMSPORT   PTCLDY    73  69  87 CALM      29.92R
SELINSGROVE    PTCLDY    73  71  93 CALM      29.92R FOG
FT INDIANTOWN  MOCLDY    78  66  66 E2        29.91R
CAPITAL CITY   PTCLDY    79  67  66 SW5       29.90R
HARRISBURG     MOCLDY    83  65  54 NE3       29.89R
YORK           PTCLDY    71  68  90 CALM      29.91R
$$

PAZ038>040-043-044-047-048-054-055-060>062-067>071-040200-
EASTERN PENNSYLVANIA

CITY           SKY/WX    TMP DP  RH WIND       PRES   REMARKS
SCRANTON       MOCLDY    73  68  84 SE3       29.95R
MOUNT POCONO   MOCLDY    70  67  90 NW5       29.99R
ALLENTOWN      CLOUDY    75  66  73 NW3       29.90R
QUAKERTOWN*    MOCLDY    81  66  61 CALM      29.91R
READING        MOCLDY    78  67  68 CALM      29.90R
LANCASTER      MOCLDY    80  67  64 N7        29.90R
COATESVILLE    PTCLDY    79  66  65 E8        29.92R
POTTSTOWN      MOCLDY    77  72  84 CALM      29.91R
BLUE BELL      MOCLDY    77  72  83 W5        29.88R
DOYLESTOWN     MOCLDY    79  68  69 CALM      29.89R
WILLOW GROVE   NOT AVBL
NORTH PHILA    PTCLDY    84  64  50 SE6       29.89R
PHILADELPHIA   MOCLDY    84  69  60 S7        29.87R
$$


USA.gov is the U.S. government's official web portal to all federal, state and local government web resources and services.